Stefano Bartoli

Chief Scout - AlbinoLeffe
18 Dec 2027
Saturday
Process

Personality

Adaptability (15) Ambition (16) Controversy (13) Loyalty (13) Pressure (8) Professionalism (18) Sportsmanship (17) Temperament (12)

Profile

Coaching Style Democratic
License National A
Determination 5
Man Management 3
Motivating 7
Discipline 6
Job Satisfaction
100%
Fatigue
0%
Role Chief Scout
Wage 28.5K p/w
Contract 14.03.2029

Performance

Behaviour Good
Training Effectiveness
28%
Player Development
10%
Injury Prevention
40%
Tactical Implementation
20%

Currently Monitoring

87
Player Club Status Ability Confidence Watched Last Observed Latest Vote
Thiago Calone All Boys Active 118 / 102 40% 1 29.08.2027 -
Erik de los Santos Racing Active 100 / 101 40% 2 28.08.2027 -
Evelio Cardozo Nueva Chicago Active 111 / 86 40% 1 28.08.2027 -
Valentín Serrano Arsenal Active 133 / 134 40% 1 27.08.2027 -
Ignacio Vallejos Colegiales Active 103 / 88 40% 1 26.08.2027 -
Emiliano Purita All Boys Active 99 / 124 40% 1 24.08.2027 -
Álvaro Veliez San Martín Active 112 / 118 40% 1 24.08.2027 -
Tiago Casasola Union Brescia Active 126 / 103 40% 2 20.08.2027 -
Francesco Rillo Picerno Active 111 / 109 40% 1 20.08.2027 -
Dean Huiberts Pro Vercelli Active 117 / 126 40% 1 18.08.2027 -
Sanasi Sy Pontedera Active 108 / 92 40% 1 18.08.2027 -
Giuseppe Panico Foggia Active 118 / 120 40% 1 17.08.2027 -
Tony Springett Lecco Active 105 / 95 40% 1 17.08.2027 -
Christian D'Urso Triestina Active 106 / 103 40% 3 14.08.2027 -
Diego Peralta Livorno Active 89 / 101 40% 1 14.08.2027 -
Leonardo Capezzi Sorrento Active 108 / 97 40% 2 11.08.2027 -
Giuseppe Guadagni Picerno Active 99 / 91 40% 1 10.08.2027 -
Jonathan Cañete Portuguesa Active 120 / 133 40% 1 10.08.2027 -
Erickson Gallardo Zamora Active 131 / 128 40% 1 09.08.2027 -
Flavio Ciuferri Trapani Active 102 / 122 40% 2 08.08.2027 -
Emanuele Anastasia Cittadella Active 112 / 95 40% 1 08.08.2027 -
Mattia Iori Lumezzane Active 109 / 90 40% 1 07.08.2027 -
Ibrahima Mbaye Altamura Active 112 / 117 40% 3 06.08.2027 -
Marco Cuccurullo Sorrento Active 102 / 92 40% 2 06.08.2027 -
Lorenzo Di Livio Triestina Active 120 / 93 40% 2 05.08.2027 -
Loris Zonta Vicenza Active 113 / 99 40% 1 05.08.2027 -
Accursio Bentivegna Casertana Active 97 / 93 40% 2 04.08.2027 -
Luca Clemenza Dolomiti Bellunesi Active 87 / 92 40% 1 04.08.2027 -
Simone Ianesi Pianese Active 109 / 110 40% 1 03.08.2027 -
Filippo Costa Vicenza Active 108 / 108 40% 3 02.08.2027 -
Jacopo Petriccione Catanzaro Active 128 / 116 40% 4 02.08.2027 -
Pietro Martino Casertana Active 98 / 109 40% 1 02.08.2027 -
Alfie Chang Walsall Active 107 / 97 40% 2 31.07.2027 -
Alessandro Caporale Casertana Active 108 / 97 40% 2 31.07.2027 -
Mamadou Coulibaly Foggia Active 125 / 98 40% 1 31.07.2027 -
Ian Pérez Defensores Active 123 / 102 40% 1 28.07.2027 -
Gonzalo Asis Almagro Active 102 / 101 40% 1 28.07.2027 -
Bryan Rivera Estudiantes de Merida Active 103 / 121 40% 1 27.07.2027 -
Erald Lakti Arzignano Active 93 / 117 40% 2 24.07.2027 -
Michele Rocca Lumezzane Active 121 / 106 40% 1 24.07.2027 -
Mehdi Boussaïd Pianese Active 92 / 94 40% 3 22.07.2027 -
Vinícius Crotone Active 111 / 127 40% 2 22.07.2027 -
Simone Iob Siracusa Active 103 / 101 40% 1 21.07.2027 -
Luca Coccolo Pro Vercelli Active 95 / 114 40% 1 21.07.2027 -
Bryan Nouvier Cavese Active 92 / 99 40% 2 18.07.2027 -
Brendan Wiredu Plymouth Argyle Active 109 / 111 40% 2 18.07.2027 -
Francesco Rodio Catania Active 112 / 89 40% 2 17.07.2027 -
Georgi Tunjov Pro Patria Active 103 / 109 40% 2 16.07.2027 -
Matías Viguet Maipú Active 131 / 113 40% 1 16.07.2027 -
Andrea Tessiore Guidonia Montecelio Active 102 / 117 40% 1 15.07.2027 -
Francesco Orlando Cavese Active 89 / 99 40% 1 15.07.2027 -
Manuele Malotti Livorno Active 113 / 114 40% 1 14.07.2027 -
Clemente Perotti Pro Vercelli Active 101 / 103 40% 1 12.07.2027 -
Aaron Drinan Swindon Town Active 94 / 105 40% 1 10.07.2027 -
Federico Giraudo Casarano Active 101 / 105 40% 2 09.07.2027 -
Roberto Pierno Campobasso Active 104 / 106 40% 1 09.07.2027 -
Edoardo Duca Ravenna Active 124 / 124 40% 1 08.07.2027 -
Liam Kerrigan Ternana Active 112 / 101 40% 1 08.07.2027 -
Manuel Di Paola Vis Pesaro Active 111 / 99 40% 1 06.07.2027 -
Kyle Jurgens Maritzburg United Active 128 / 132 40% 1 06.07.2027 -
Pavel Maslov Chaika Active 123 / 113 40% 2 01.07.2027 -
Maxime Giron Foggia Active 113 / 121 40% 1 01.07.2027 -
Francesco Petito Dolomiti Bellunesi Active 93 / 118 40% 1 01.07.2027 -
Filippo Oliana Carrarese Active 116 / 105 40% 1 01.07.2027 -
Michele Cavion Vicenza Active 106 / 87 40% 1 26.06.2027 -
Zak Ruggiero Crotone Active 95 / 98 40% 1 26.06.2027 -
Ciro Loreto Cavese Active 113 / 92 40% 1 25.06.2027 -
Claud Adjapong Potenza Active 109 / 91 40% 2 24.06.2027 -
Marco Varnier Juve Stabia Active 110 / 110 40% 1 22.06.2027 -
Luca Valzania Pescara Active 107 / 122 40% 1 22.06.2027 -
Nicola Dalmonte Trento Active 102 / 99 40% 1 22.06.2027 -
Jérémie Broh Giugliano Active 93 / 108 40% 1 21.06.2027 -
José Álvarez Arsenal Tula Active 95 / 130 40% 1 18.06.2027 -
Nicola Murru Gubbio Active 102 / 112 40% 1 18.06.2027 -
Mattia Rutigliano Pro Vercelli Active 88 / 117 40% 1 16.06.2027 -
Nuri Abdokov Fakel Active 101 / 86 40% 1 16.06.2027 -
Fabio Cariolato Arzignano Active 94 / 99 40% 1 14.06.2027 -
Filippo Berra Foggia Active 105 / 100 40% 1 14.06.2027 -
Michele Emmausso Cosenza Active 113 / 109 40% 1 12.06.2027 -
Francesco Proietto Pianese Active 116 / 103 40% 1 10.06.2027 -
Luigi Esposito Napoli Lost 87 / 97 69% 1 01.06.2027 -
Valerio Maccaroni AS Roma Lost 95 / 106 70% 1 01.06.2027 -
Tommaso Valenta AC Milan Lost 79 / 86 68% 1 01.06.2027 -
Federico Tonti Cesena Rejected 78 / 87 67% 1 01.01.2027 Reject
Ibrahima Camara Atalanta Rejected 78 / 86 67% 1 01.01.2027 Reject
Tomás Attis Patronato Active 113 / 86 40% 1 03.08.2026 -
Francisco Bonfiglio Boston River Active 106 / 86 40% 1 02.08.2026 -